| time (UTC) | temp F | wind direction | speed knots | gust knots | rain 1hr in | rain 24hr in | rain mn in | humidity % | barometer mb |
| 20260504003021 | 73 | 194 | 1.7 | 7.8 | 0.00 | 0.00 | 0.00 | 42 | 1016.0 |
| 20260504001506 | 74 | 166 | 1.7 | 8.7 | 0.00 | 0.00 | 0.00 | 40 | 1016.2 |
| 20260504000004 | 75 | 166 | 2.6 | 9.6 | 0.00 | 0.00 | 0.00 | 40 | 1016.5 |
| 20260503234511 | 75 | 107 | 0.9 | 8.7 | 0.00 | 0.00 | 0.00 | 41 | 1016.4 |
| 20260503233003 | 77 | 207 | 2.6 | 9.6 | 0.00 | 0.00 | 0.00 | 38 | 1016.6 |
| 20260503231502 | 75 | 123 | 1.7 | 5.2 | 0.00 | 0.00 | 0.00 | 41 | 1016.6 |
| 20260503230104 | 76 | 97 | 2.6 | 8.7 | 0.00 | 0.00 | 0.00 | 37 | 1016.6 |
| 20260503224600 | 77 | 265 | 4.3 | 8.7 | 0.00 | 0.00 | 0.00 | 35 | 1016.8 |
| 20260503223100 | 78 | 224 | 3.5 | 10.4 | 0.00 | 0.00 | 0.00 | 38 | 1016.7 |
| 20260503221557 | 78 | 72 | 3.5 | 11.3 | 0.00 | 0.00 | 0.00 | 36 | 1016.8 |
| 20260503220057 | 77 | 113 | 3.5 | 8.7 | 0.00 | 0.00 | 0.00 | 36 | 1017.1 |
| 20260503214554 | 77 | 119 | 2.6 | 10.4 | 0.00 | 0.00 | 0.00 | 37 | 1017.4 |
| 20260503213104 | 78 | 152 | 2.6 | 9.6 | 0.00 | 0.00 | 0.00 | 36 | 1017.6 |
| 20260503211551 | 77 | 112 | 3.5 | 10.4 | 0.00 | 0.00 | 0.00 | 36 | 1017.9 |
| 20260503210056 | 78 | 82 | 3.5 | 8.7 | 0.00 | 0.00 | 0.00 | 36 | 1018.0 |
| 20260503204551 | 78 | 154 | 3.5 | 7.8 | 0.00 | 0.00 | 0.00 | 37 | 1018.4 |
| 20260503203041 | 78 | 129 | 4.3 | 9.6 | 0.00 | 0.00 | 0.00 | 37 | 1018.9 |
| 20260503201539 | 77 | 123 | 2.6 | 11.3 | 0.00 | 0.00 | 0.00 | 37 | 1019.1 |
| 20260503200036 | 76 | 107 | 2.6 | 9.6 | 0.00 | 0.00 | 0.00 | 40 | 1019.4 |
| 20260503194536 | 76 | 92 | 3.5 | 7.0 | 0.00 | 0.00 | 0.00 | 40 | 1019.6 |
| 20260503193042 | 76 | 239 | 1.7 | 7.0 | 0.00 | 0.00 | 0.00 | 39 | 1019.9 |
| 20260503191530 | 75 | 158 | 2.6 | 7.8 | 0.00 | 0.00 | 0.00 | 39 | 1020.0 |
| 20260503190029 | 76 | 251 | 3.5 | 7.8 | 0.00 | 0.00 | 0.00 | 44 | 1020.3 |
| 20260503184536 | 75 | 116 | 3.5 | 8.7 | 0.00 | 0.00 | 0.00 | 40 | 1020.5 |
| 20260503183024 | 75 | 146 | 3.5 | 10.4 | 0.00 | 0.00 | 0.00 | 41 | 1020.9 |
| 20260503181521 | 74 | 232 | 2.6 | 8.7 | 0.00 | 0.00 | 0.00 | 43 | 1021.2 |
| 20260503180024 | 74 | 239 | 3.5 | 7.0 | 0.00 | 0.00 | 0.00 | 44 | 1021.3 |
| 20260503174520 | 74 | 133 | 3.5 | 7.8 | 0.00 | 0.00 | 0.00 | 43 | 1021.7 |
| 20260503173018 | 74 | 215 | 4.3 | 10.4 | 0.00 | 0.00 | 0.00 | 43 | 1022.0 |
| 20260503171517 | 73 | 127 | 2.6 | 7.8 | 0.00 | 0.00 | 0.00 | 40 | 1022.3 |
| 20260503081557 | 47 | 353 | 0.0 | 0.9 | 0.00 | 0.00 | 0.00 | 93 | 1021.4 |
| 20260503071549 | 48 | 43 | 0.0 | 0.0 | 0.00 | 0.00 | 0.00 | 91 | 1022.0 |
| 20260503054539 | 51 | 76 | 0.0 | 0.0 | 0.00 | 0.00 | 0.00 | 90 | 1022.2 |
| 20260503053038 | 51 | 76 | 0.0 | 0.0 | 0.00 | 0.00 | 0.00 | 87 | 1022.1 |
| 20260503051533 | 51 | 76 | 0.0 | 0.0 | 0.00 | 0.00 | 0.00 | 86 | 1022.1 |
| 20260503050031 | 52 | 76 | 0.0 | 0.0 | 0.00 | 0.00 | 0.00 | 87 | 1022.2 |
| 20260503044530 | 52 | 61 | 0.0 | 0.0 | 0.00 | 0.00 | 0.00 | 85 | 1021.9 |
| 20260503043029 | 53 | 80 | 0.0 | 0.0 | 0.00 | 0.00 | 0.00 | 82 | 1022.2 |
| 20260503041529 | 53 | 80 | 0.0 | 0.0 | 0.00 | 0.00 | 0.00 | 81 | 1021.9 |
| 20260503040034 | 54 | 80 | 0.0 | 0.0 | 0.00 | 0.00 | 0.00 | 82 | 1022.0 |
| 20260503034538 | 55 | 80 | 0.0 | 0.0 | 0.00 | 0.00 | 0.00 | 79 | 1021.7 |
| 20260503033031 | 55 | 36 | 0.0 | 0.0 | 0.00 | 0.00 | 0.00 | 77 | 1021.6 |
| 20260503031533 | 56 | 36 | 0.0 | 0.0 | 0.00 | 0.00 | 0.00 | 75 | 1021.5 |
| 20260503030026 | 57 | 36 | 0.0 | 0.0 | 0.00 | 0.00 | 0.00 | 73 | 1021.3 |
| 20260503024525 | 58 | 36 | 0.0 | 0.0 | 0.00 | 0.00 | 0.00 | 70 | 1021.1 |
| 20260503023026 | 59 | 36 | 0.0 | 0.9 | 0.00 | 0.00 | 0.00 | 66 | 1020.9 |
| 20260503021524 | 61 | 36 | 0.0 | 0.0 | 0.00 | 0.00 | 0.00 | 65 | 1020.9 |
| 20260503020025 | 63 | 36 | 0.0 | 0.0 | 0.00 | 0.00 | 0.00 | 59 | 1020.5 |
| 20260503014523 | 63 | 36 | 0.0 | 0.0 | 0.00 | 0.00 | 0.00 | 53 | 1020.1 |
| 20260503013021 | 65 | 36 | 0.0 | 0.9 | 0.00 | 0.00 | 0.00 | 52 | 1019.9 |
| 20260503011521 | 67 | 36 | 0.0 | 0.0 | 0.00 | 0.00 | 0.00 | 49 | 1019.9 |
| 20260503010021 | 70 | 36 | 0.0 | 0.9 | 0.00 | 0.00 | 0.00 | 46 | 1019.7 |
| 20260503004520 | 71 | 58 | 0.0 | 0.9 | 0.00 | 0.00 | 0.00 | 44 | 1019.7 |